Miscellaneous Local Product
Issued by NWS Hastings, NE

Home | Current Version | Previous Version | Graphics & Text | Print | Product List | Glossary On
Versions: 1 2 3 4 5 6 7 8 9 10 11 12 13 14 15 16 17 18 19 20 21 22 23 24 25 26 27 28 29 30 31 32 33 34 35 36 37 38 39 40 41 42 43 44 45 46 47 48 49 50
000
AXUS43 KGID 230702
MISGRI

GID CWA HOURLY WEATHER ROUNDUP
NATIONAL WEATHER SERVICE HASTINGS NE
200 AM CDT THU OCT 23 2014

NOTE: "FAIR" INDICATES FEW OR NO CLOUDS BELOW 12,000 FEET WITH NO
SIGNIFICANT WEATHER AND/OR OBSTRUCTIONS TO VISIBILITY.

...SOUTH CENTRAL NEBRASKA...

CITY           SKY/WX    TMP DP  RH WIND       PRES   REMARKS
GRAND ISLAND   FOG       52  51  97 NW6       30.06R VSB 1/4
HASTINGS       FOG       54  52  93 N6        30.05S VSB 1/4
KEARNEY        CLOUDY    50  48  93 NW5       30.08R VSB<1/4
ORD            FOG       42  42 100 CALM      30.05S VSB 1/4
YORK           CLOUDY    57  57 100 W3        30.04S FOG
AURORA         FOG       58  58 100 N6        30.05S VSB<1/4
LEXINGTON      FOG       50  49  97 CALM      30.08R VSB<1/4
HOLDREGE       FOG       51  50  97 CALM      30.07S VSB<1/4
HEBRON         CLEAR     59  56  89 S8        30.03S

...NEBRASKA PANHANDLE...

CITY           SKY/WX    TMP DP  RH WIND       PRES   REMARKS
CHADRON        CLEAR     31  28  89 CALM      30.05S
ALLIANCE       PTCLDY    29  24  82 W6        30.08S WCI  23
SCOTTSBLUFF    CLEAR     38  29  70 N7        30.10S WCI  33
SIDNEY         CLEAR     40  34  79 W9        30.11F WCI  34

...WESTERN AND NORTH CENTRAL NEBRASKA...

CITY           SKY/WX    TMP DP  RH WIND       PRES   REMARKS
VALENTINE      CLEAR     39  36  89 SW5       30.05S
AINSWORTH      CLEAR     42  39  90 SW6       30.05S
ONEILL         FOG       39  39 100 SW3       30.05S VSB 1/2
BROKEN BOW     FOG       42  40  92 CALM      30.07R VSB 1
IMPERIAL       CLEAR     45  32  60 W5        30.09R
NORTH PLATTE   FOG       43  43 100 SE3       30.08R VSB 1/4
MCCOOK         CLEAR     45  43  93 NW5       30.08R

...EASTERN NEBRASKA...

CITY           SKY/WX    TMP DP  RH WIND       PRES   REMARKS
NORFOLK        PTCLDY    52  51  97 W6        30.03F
SO SIOUX CITY  CLOUDY    59  58  96 W5        30.01F FOG
TEKAMAH        CLOUDY    62  60  93 S6        30.01S
COLUMBUS       MOCLDY    55  52  88 NW6       30.05R
ALBION         FOG       47  46  93 CALM      30.06R VSB 1/4
OMAHA EPPLEY   CLOUDY    63  60  90 S12       30.02F
OFFUTT AFB     CLOUDY    62  62 100 SE9       30.02S
MILLARD        CLOUDY    63  60  91 SE7       30.02F
LINCOLN        NOT AVBL
NEBRASKA CITY  LGT RAIN  60  60 100 S7        30.05S
BEATRICE       CLOUDY    61  59  93 S9        30.03S
FALLS CITY     LGT RAIN  62  60  93 S3        30.06S

...NORTHERN KANSAS...

CITY           SKY/WX    TMP DP  RH WIND       PRES   REMARKS
GOODLAND       CLEAR     45  43  93 W7        30.12R
HILL CITY      PTCLDY    50  49  96 W3        30.06R
NORTON         FOG       48  46  93 CALM      30.05R VSB 0
PHILLIPSBURG   FOG       52  52 100 NW5       30.05S VSB 1/2
SMITH CENTER   CLEAR     52  52 100 S3        30.05S FOG
BELOIT         CLOUDY    61  59  94 SE5       30.04S
HAYS           CLOUDY    61  55  82 SW6       30.06F
RUSSELL        CLOUDY    61  58  90 SW9       30.05R
CONCORDIA      CLOUDY    60  59  96 S7        30.05S
SALINA         CLOUDY    64  58  80 SW7       30.06R
TOPEKA         HVY RAIN  62  62 100 CALM      30.09S FOG



USA.gov is the U.S. government's official web portal to all federal, state and local government web resources and services.